Location: North Bay
(46.3091°N, 79.4608°W)
Time: 17:02:04
(UTC-04:00)

ISS - Visible Passes

Search period start: 16 July 2019 00:00
Search period end: 26 July 2019 00:00
Orbit: 409 x 418 km, 51.6° (Epoch: 17 July)

Date Brightness Start Highest point End Pass type
(mag) Time Alt. Az. Time Alt. Az. Time Alt. Az.
16 Jul -3.6 00:06:50 10° WSW 00:10:11 72° NNW 00:13:31 10° ENE visible
16 Jul -1.9 01:44:10 10° WNW 01:47:12 32° N 01:50:15 10° ENE visible
16 Jul -2.4 03:21:12 10° WNW 03:24:23 41° NNE 03:27:34 10° E visible
16 Jul -3.6 04:57:55 10° WNW 05:01:09 49° SW 05:04:21 10° SE visible
16 Jul -1.9 21:43:08 10° SSE 21:44:43 13° SE 21:46:18 10° ESE visible
16 Jul -4.0 23:17:35 10° SW 23:20:55 76° SSE 23:24:14 10° ENE visible
17 Jul -2.1 00:54:42 10° W 00:57:48 35° N 01:00:55 10° ENE visible
17 Jul -2.1 02:31:55 10° WNW 02:35:01 35° N 02:38:06 10° ENE visible
17 Jul -3.9 04:08:36 10° WNW 04:11:56 79° SSW 04:15:13 10° ESE visible
17 Jul -3.6 22:28:27 10° SW 22:31:41 47° SE 22:34:54 10° ENE visible
18 Jul -2.5 00:05:13 10° W 00:08:25 42° NNW 00:11:37 10° ENE visible
18 Jul -1.9 01:42:33 10° WNW 01:45:36 32° N 01:48:37 10° ENE visible
18 Jul -3.6 03:19:19 10° WNW 03:22:38 70° NNE 03:25:57 10° ESE visible
18 Jul -2.5 04:56:28 10° W 04:59:04 21° SW 05:01:38 10° S visible
18 Jul -2.9 21:39:33 10° SSW 21:42:30 29° SE 21:45:27 10° ENE visible
18 Jul -3.1 23:15:45 10° W 23:19:03 56° NNW 23:22:20 10° ENE visible
19 Jul -1.8 00:53:08 10° WNW 00:56:09 31° N 00:59:10 10° ENE visible
19 Jul -2.9 02:30:03 10° WNW 02:33:18 50° NNE 02:36:32 10° E visible
19 Jul -3.2 04:06:51 10° WNW 04:09:54 34° SW 04:12:56 10° SSE visible
19 Jul -3.7 22:26:22 10° WSW 22:29:43 80° NNW 22:33:03 10° ENE visible
20 Jul -1.9 00:03:39 10° WNW 00:06:43 32° N 00:09:46 10° ENE visible
20 Jul -2.4 01:40:44 10° WNW 01:43:54 39° NNE 01:46:03 17° ENE visible
20 Jul -1.9 03:17:26 10° WNW 03:18:36 20° WNW 03:18:36 20° WNW visible
20 Jul -3.8 21:37:05 10° SW 21:40:24 68° SSE 21:43:43 10° ENE visible
20 Jul -2.2 23:14:07 10° W 23:17:16 37° NNW 23:20:24 10° ENE visible
21 Jul -2.1 00:51:23 10° WNW 00:54:28 34° N 00:56:15 20° ENE visible
21 Jul -1.5 02:28:04 10° WNW 02:29:00 17° WNW 02:29:00 17° WNW visible
21 Jul -2.6 22:24:37 10° W 22:27:51 45° NNW 22:31:04 10° ENE visible
22 Jul -1.9 00:01:58 10° WNW 00:05:00 31° N 00:07:45 12° ENE visible
22 Jul -2.1 01:38:45 10° WNW 01:40:32 28° NW 01:40:32 28° NW visible
22 Jul -3.2 21:35:07 10° WSW 21:38:26 61° NNW 21:41:45 10° ENE visible
22 Jul -1.9 23:12:28 10° WNW 23:15:31 31° N 23:18:33 10° ENE visible
23 Jul -2.7 00:49:26 10° WNW 00:52:22 45° N 00:52:22 45° N visible
23 Jul -2.0 22:22:56 10° WNW 22:26:01 33° N 22:29:06 10° ENE visible
24 Jul -2.4 00:00:04 10° WNW 00:03:13 37° NNE 00:04:19 28° NE visible
24 Jul -1.0 01:36:45 10° WNW 01:37:07 13° WNW 01:37:07 13° WNW visible
24 Jul -2.3 21:33:22 10° W 21:36:32 39° NNW 21:39:42 10° ENE visible
24 Jul -2.1 23:10:40 10° WNW 23:13:44 33° N 23:16:22 13° ENE visible
25 Jul -2.1 00:47:22 10° WNW 00:49:10 29° WNW 00:49:10 29° WNW visible
25 Jul -2.0 22:21:10 10° WNW 22:24:13 31° N 22:27:15 10° ENE visible
